Year,Month,Day,Hour,Minute,Value (Times are PST for temperature in C)
2016,06,17,00,00,8.80
2016,06,17,00,01,8.80
2016,06,17,00,02,8.70
2016,06,17,00,03,8.70
2016,06,17,00,04,8.70
2016,06,17,00,05,8.70
2016,06,17,00,06,8.70
2016,06,17,00,07,8.70
2016,06,17,00,08,8.80
2016,06,17,00,09,8.80
2016,06,17,00,10,8.80
2016,06,17,00,11,8.80
2016,06,17,00,12,8.80
2016,06,17,00,13,8.80
2016,06,17,00,14,8.70
2016,06,17,00,15,8.70
2016,06,17,00,16,8.70
2016,06,17,00,17,8.70
2016,06,17,00,18,8.60
2016,06,17,00,19,8.60
2016,06,17,00,20,8.60
2016,06,17,00,21,8.60
2016,06,17,00,22,8.60
2016,06,17,00,23,8.60
2016,06,17,00,24,8.60
2016,06,17,00,25,8.60
2016,06,17,00,26,8.50
2016,06,17,00,27,8.50
2016,06,17,00,28,8.50
2016,06,17,00,29,8.50
2016,06,17,00,30,8.40
2016,06,17,00,31,8.40
2016,06,17,00,32,8.40
2016,06,17,00,33,8.40
2016,06,17,00,34,8.40
2016,06,17,00,35,8.40
2016,06,17,00,36,8.40
2016,06,17,00,37,8.40
2016,06,17,00,38,8.50
2016,06,17,00,39,8.50
2016,06,17,00,40,8.60
2016,06,17,00,41,8.60
2016,06,17,00,42,8.60
2016,06,17,00,43,8.70
2016,06,17,00,44,8.70
2016,06,17,00,45,8.70
2016,06,17,00,46,8.70
2016,06,17,00,47,8.70
2016,06,17,00,48,8.70
2016,06,17,00,49,8.70
2016,06,17,00,50,8.70
2016,06,17,00,51,8.70
2016,06,17,00,52,8.70
2016,06,17,00,53,8.70
2016,06,17,00,54,8.70
2016,06,17,00,55,8.70
2016,06,17,00,56,8.70
2016,06,17,00,57,8.70
2016,06,17,00,58,8.60
2016,06,17,00,59,8.60
2016,06,17,01,00,8.60
2016,06,17,01,01,8.60
2016,06,17,01,02,8.60
2016,06,17,01,03,8.50
2016,06,17,01,04,8.50
2016,06,17,01,05,8.40
2016,06,17,01,06,8.40
2016,06,17,01,07,8.40
2016,06,17,01,08,8.30
2016,06,17,01,09,8.30
2016,06,17,01,10,8.30
2016,06,17,01,11,8.30
2016,06,17,01,12,8.30
2016,06,17,01,13,8.30
2016,06,17,01,14,8.30
2016,06,17,01,15,8.30
2016,06,17,01,16,8.20
2016,06,17,01,17,8.20
2016,06,17,01,18,8.20
2016,06,17,01,19,8.20
2016,06,17,01,20,8.10
2016,06,17,01,21,8.10
2016,06,17,01,22,8.10
2016,06,17,01,23,8.00
2016,06,17,01,24,8.00
2016,06,17,01,25,7.90
2016,06,17,01,26,7.90
2016,06,17,01,27,7.80
2016,06,17,01,28,7.80
2016,06,17,01,29,7.80
2016,06,17,01,30,7.80
2016,06,17,01,31,7.70
2016,06,17,01,32,7.70
2016,06,17,01,33,7.60
2016,06,17,01,34,7.60
2016,06,17,01,35,7.50
2016,06,17,01,36,7.50
2016,06,17,01,37,7.40
2016,06,17,01,38,7.40
2016,06,17,01,39,7.30
2016,06,17,01,40,7.30
2016,06,17,01,41,7.20
2016,06,17,01,42,7.20
2016,06,17,01,43,7.20
2016,06,17,01,44,7.20
2016,06,17,01,45,7.20
2016,06,17,01,46,7.10
2016,06,17,01,47,7.10
2016,06,17,01,48,7.10
2016,06,17,01,49,7.00
2016,06,17,01,50,7.00
2016,06,17,01,51,7.00
2016,06,17,01,52,7.00
2016,06,17,01,53,7.00
2016,06,17,01,54,6.90
2016,06,17,01,55,6.90
2016,06,17,01,56,6.90
2016,06,17,01,57,6.90
2016,06,17,01,58,6.90
2016,06,17,01,59,6.80
2016,06,17,02,00,6.80
2016,06,17,02,01,6.80
2016,06,17,02,02,6.80
2016,06,17,02,03,6.80
2016,06,17,02,04,6.70
2016,06,17,02,05,6.70
2016,06,17,02,06,6.70
2016,06,17,02,07,6.70
2016,06,17,02,08,6.60
2016,06,17,02,09,6.60
2016,06,17,02,10,6.60
2016,06,17,02,11,6.60
2016,06,17,02,12,6.60
2016,06,17,02,13,6.60
2016,06,17,02,14,6.50
2016,06,17,02,15,6.50
2016,06,17,02,16,6.40
2016,06,17,02,17,6.40
2016,06,17,02,18,6.40
2016,06,17,02,19,6.40
2016,06,17,02,20,6.40
2016,06,17,02,21,6.30
2016,06,17,02,22,6.30
2016,06,17,02,23,6.30
2016,06,17,02,24,6.30
2016,06,17,02,25,6.30
2016,06,17,02,26,6.30
2016,06,17,02,27,6.30
2016,06,17,02,28,6.20
2016,06,17,02,29,6.20
2016,06,17,02,30,6.20
2016,06,17,02,31,6.20
2016,06,17,02,32,6.10
2016,06,17,02,33,6.10
2016,06,17,02,34,6.10
2016,06,17,02,35,6.10
2016,06,17,02,36,6.00
2016,06,17,02,37,6.00
2016,06,17,02,38,6.00
2016,06,17,02,39,5.90
2016,06,17,02,40,5.90
2016,06,17,02,41,5.90
2016,06,17,02,42,5.90
2016,06,17,02,43,5.90
2016,06,17,02,44,5.80
2016,06,17,02,45,5.80
2016,06,17,02,46,5.80
2016,06,17,02,47,5.80
2016,06,17,02,48,5.80
2016,06,17,02,49,5.70
2016,06,17,02,50,5.70
2016,06,17,02,51,5.70
2016,06,17,02,52,5.70
2016,06,17,02,53,5.70
2016,06,17,02,54,5.70
2016,06,17,02,55,5.70
2016,06,17,02,56,5.60
2016,06,17,02,57,5.60
2016,06,17,02,58,5.60
2016,06,17,02,59,5.60
2016,06,17,03,00,5.60
2016,06,17,03,01,5.60
2016,06,17,03,02,5.60
2016,06,17,03,03,5.60
2016,06,17,03,04,5.50
2016,06,17,03,05,5.50
2016,06,17,03,06,5.50
2016,06,17,03,07,5.50
2016,06,17,03,08,5.40
2016,06,17,03,09,5.40
2016,06,17,03,10,5.40
2016,06,17,03,11,5.40
2016,06,17,03,12,5.40
2016,06,17,03,13,5.40
2016,06,17,03,14,5.40
2016,06,17,03,15,5.40
2016,06,17,03,16,5.30
2016,06,17,03,17,5.30
2016,06,17,03,18,5.30
2016,06,17,03,19,5.30
2016,06,17,03,20,5.30
2016,06,17,03,21,5.30
2016,06,17,03,22,5.30
2016,06,17,03,23,5.30
2016,06,17,03,24,5.30
2016,06,17,03,25,5.20
2016,06,17,03,26,5.20
2016,06,17,03,27,5.20
2016,06,17,03,28,5.20
2016,06,17,03,29,5.20
2016,06,17,03,30,5.20
2016,06,17,03,31,5.20
2016,06,17,03,32,5.20
2016,06,17,03,33,5.10
2016,06,17,03,34,5.10
2016,06,17,03,35,5.10
2016,06,17,03,36,5.10
2016,06,17,03,37,5.10
2016,06,17,03,38,5.10
2016,06,17,03,39,5.10
2016,06,17,03,40,5.10
2016,06,17,03,41,5.00
2016,06,17,03,42,5.00
2016,06,17,03,43,5.00
2016,06,17,03,44,5.00
2016,06,17,03,45,5.00
2016,06,17,03,46,4.90
2016,06,17,03,47,4.90
2016,06,17,03,48,4.90
2016,06,17,03,49,4.90
2016,06,17,03,50,4.90
2016,06,17,03,51,4.90
2016,06,17,03,52,4.90
2016,06,17,03,53,4.90
2016,06,17,03,54,4.90
2016,06,17,03,55,4.90
2016,06,17,03,56,4.90
2016,06,17,03,57,4.90
2016,06,17,03,58,4.80
2016,06,17,03,59,4.80
2016,06,17,04,00,4.80
2016,06,17,04,01,4.80
2016,06,17,04,02,4.80
2016,06,17,04,03,4.80
2016,06,17,04,04,4.80
2016,06,17,04,05,4.70
2016,06,17,04,06,4.70
2016,06,17,04,07,4.70
2016,06,17,04,08,4.70
2016,06,17,04,09,4.70
2016,06,17,04,10,4.70
2016,06,17,04,11,4.70
2016,06,17,04,12,4.70
2016,06,17,04,13,4.70
2016,06,17,04,14,4.60
2016,06,17,04,15,4.60
2016,06,17,04,16,4.60
2016,06,17,04,17,4.60
2016,06,17,04,18,4.60
2016,06,17,04,19,4.60
2016,06,17,04,20,4.60
2016,06,17,04,21,4.60
2016,06,17,04,22,4.50
2016,06,17,04,23,4.50
2016,06,17,04,24,4.50
2016,06,17,04,25,4.50
2016,06,17,04,26,4.50
2016,06,17,04,27,4.50
2016,06,17,04,28,4.50
2016,06,17,04,29,4.50
2016,06,17,04,30,4.40
2016,06,17,04,31,4.40
2016,06,17,04,32,4.40
2016,06,17,04,33,4.40
2016,06,17,04,34,4.40
2016,06,17,04,35,4.40
2016,06,17,04,36,4.40
2016,06,17,04,37,4.40
2016,06,17,04,38,4.40
2016,06,17,04,39,4.40
2016,06,17,04,40,4.40
2016,06,17,04,41,4.40
2016,06,17,04,42,4.40
2016,06,17,04,43,4.40
2016,06,17,04,44,4.40
2016,06,17,04,45,4.40
2016,06,17,04,46,4.40
2016,06,17,04,47,4.40
2016,06,17,04,48,4.40
2016,06,17,04,49,4.40
2016,06,17,04,50,4.40
2016,06,17,04,51,4.40
2016,06,17,04,52,4.30
2016,06,17,04,53,4.30
2016,06,17,04,54,4.30
2016,06,17,04,55,4.30
2016,06,17,04,56,4.30
2016,06,17,04,57,4.30
2016,06,17,04,58,4.30
2016,06,17,04,59,4.20
2016,06,17,05,00,4.20
2016,06,17,05,01,4.20
2016,06,17,05,02,4.20
2016,06,17,05,03,4.20
2016,06,17,05,04,4.20
2016,06,17,05,05,4.20
2016,06,17,05,06,4.10
2016,06,17,05,07,4.10
2016,06,17,05,08,4.10
2016,06,17,05,09,4.10
2016,06,17,05,10,4.10
2016,06,17,05,11,4.10
2016,06,17,05,12,4.10
2016,06,17,05,13,4.10
2016,06,17,05,14,4.10
2016,06,17,05,15,4.10
2016,06,17,05,16,4.10
2016,06,17,05,17,4.00
2016,06,17,05,18,4.00
2016,06,17,05,19,4.00
2016,06,17,05,20,4.00
2016,06,17,05,21,4.00
2016,06,17,05,22,4.00
2016,06,17,05,23,4.00
2016,06,17,05,24,4.10
2016,06,17,05,25,4.10
2016,06,17,05,26,4.10
2016,06,17,05,27,4.10
2016,06,17,05,28,4.10
2016,06,17,05,29,4.10
2016,06,17,05,30,4.00
2016,06,17,05,31,4.00
2016,06,17,05,32,4.00
2016,06,17,05,33,4.00
2016,06,17,05,34,4.00
2016,06,17,05,35,4.10
2016,06,17,05,36,4.10
2016,06,17,05,37,4.00
2016,06,17,05,38,4.00
2016,06,17,05,39,4.00
2016,06,17,05,40,4.00
2016,06,17,05,41,4.00
2016,06,17,05,42,3.90
2016,06,17,05,43,3.90
2016,06,17,05,44,3.90
2016,06,17,05,45,3.90
2016,06,17,05,46,3.90
2016,06,17,05,47,3.90
2016,06,17,05,48,3.90
2016,06,17,05,49,3.80
2016,06,17,05,50,3.80
2016,06,17,05,51,3.80
2016,06,17,05,52,3.80
2016,06,17,05,53,3.80
2016,06,17,05,54,3.80
2016,06,17,05,55,3.80
2016,06,17,05,56,3.80
2016,06,17,05,57,3.80
2016,06,17,05,58,3.90
2016,06,17,05,59,3.90
2016,06,17,06,00,3.90
2016,06,17,06,01,3.90
2016,06,17,06,02,3.90
2016,06,17,06,03,3.90
2016,06,17,06,04,3.90
2016,06,17,06,05,3.90
2016,06,17,06,06,3.90
2016,06,17,06,07,3.90
2016,06,17,06,08,3.90
2016,06,17,06,09,3.90
2016,06,17,06,10,3.90
2016,06,17,06,11,3.90
2016,06,17,06,12,3.90
2016,06,17,06,13,3.90
2016,06,17,06,14,3.90
2016,06,17,06,15,3.90
2016,06,17,06,16,3.80
2016,06,17,06,17,3.80
2016,06,17,06,18,3.80
2016,06,17,06,19,3.80
2016,06,17,06,20,3.80
2016,06,17,06,21,3.80
2016,06,17,06,22,3.90
2016,06,17,06,23,3.90
2016,06,17,06,24,3.90
2016,06,17,06,25,3.90
2016,06,17,06,26,3.90
2016,06,17,06,27,3.90
2016,06,17,06,28,3.90
2016,06,17,06,29,3.90
2016,06,17,06,30,3.90
2016,06,17,06,31,3.90
2016,06,17,06,32,3.90
2016,06,17,06,33,3.90
2016,06,17,06,34,3.90
2016,06,17,06,35,3.90
2016,06,17,06,36,3.90
2016,06,17,06,37,3.90
2016,06,17,06,38,3.90
2016,06,17,06,39,3.90
2016,06,17,06,40,3.90
2016,06,17,06,41,3.90
2016,06,17,06,42,3.90
2016,06,17,06,43,3.90
2016,06,17,06,44,3.90
2016,06,17,06,45,4.00
2016,06,17,06,46,4.00
2016,06,17,06,47,4.00
2016,06,17,06,48,4.10
2016,06,17,06,49,4.10
2016,06,17,06,50,4.10
2016,06,17,06,51,4.10
2016,06,17,06,52,4.10
2016,06,17,06,53,4.10
2016,06,17,06,54,4.10
2016,06,17,06,55,4.10
2016,06,17,06,56,4.10
2016,06,17,06,57,4.10
2016,06,17,06,58,4.20
2016,06,17,06,59,4.20
2016,06,17,07,00,4.20
2016,06,17,07,01,4.30
2016,06,17,07,02,4.30
2016,06,17,07,03,4.30
2016,06,17,07,04,4.40
2016,06,17,07,05,4.40
2016,06,17,07,06,4.50
2016,06,17,07,07,4.50
2016,06,17,07,08,4.60
2016,06,17,07,09,4.70
2016,06,17,07,10,4.70
2016,06,17,07,11,4.70
2016,06,17,07,12,4.80
2016,06,17,07,13,4.80
2016,06,17,07,14,4.90
2016,06,17,07,15,4.90
2016,06,17,07,16,5.00
2016,06,17,07,17,5.10
2016,06,17,07,18,5.10
2016,06,17,07,19,5.30
2016,06,17,07,20,5.40
2016,06,17,07,21,5.50
2016,06,17,07,22,5.60
2016,06,17,07,23,5.70
2016,06,17,07,24,5.80
2016,06,17,07,25,5.90
2016,06,17,07,26,6.00
2016,06,17,07,27,6.10
2016,06,17,07,28,6.20
2016,06,17,07,29,6.20
2016,06,17,07,30,6.30
2016,06,17,07,31,6.30
2016,06,17,07,32,6.40
2016,06,17,07,33,6.40
2016,06,17,07,34,6.50
2016,06,17,07,35,6.60
2016,06,17,07,36,6.70
2016,06,17,07,37,6.80
2016,06,17,07,38,6.80
2016,06,17,07,39,6.90
2016,06,17,07,40,6.90
2016,06,17,07,41,7.00
2016,06,17,07,42,7.00
2016,06,17,07,43,7.10
2016,06,17,07,44,7.20
2016,06,17,07,45,7.20
2016,06,17,07,46,7.40
2016,06,17,07,47,7.50
2016,06,17,07,48,7.60
2016,06,17,07,49,7.70
2016,06,17,07,50,7.80
2016,06,17,07,51,7.80
2016,06,17,07,52,7.90
2016,06,17,07,53,8.00
2016,06,17,07,54,8.10
2016,06,17,07,55,8.20
2016,06,17,07,56,8.20
2016,06,17,07,57,8.30
2016,06,17,07,58,8.40
2016,06,17,07,59,8.50
2016,06,17,08,00,8.60
2016,06,17,08,01,8.70
2016,06,17,08,02,8.80
2016,06,17,08,03,9.00
2016,06,17,08,04,9.10
2016,06,17,08,05,9.20
2016,06,17,08,06,9.20
2016,06,17,08,07,9.30
2016,06,17,08,08,9.40
2016,06,17,08,09,9.50
2016,06,17,08,10,9.60
2016,06,17,08,11,9.70
2016,06,17,08,12,9.70
2016,06,17,08,13,9.80
2016,06,17,08,14,9.90
2016,06,17,08,15,10.00
2016,06,17,08,16,10.10
2016,06,17,08,17,10.20
2016,06,17,08,18,10.30
2016,06,17,08,19,10.50
2016,06,17,08,20,10.60
2016,06,17,08,21,10.60
2016,06,17,08,22,10.70
2016,06,17,08,23,10.80
2016,06,17,08,24,10.90
2016,06,17,08,25,11.00
2016,06,17,08,26,11.00
2016,06,17,08,27,11.10
2016,06,17,08,28,11.10
2016,06,17,08,29,11.10
2016,06,17,08,30,11.20
2016,06,17,08,31,11.20
2016,06,17,08,32,11.20
2016,06,17,08,33,11.30
2016,06,17,08,34,11.50
2016,06,17,08,35,11.60
2016,06,17,08,36,11.60
2016,06,17,08,37,11.80
2016,06,17,08,38,11.90
2016,06,17,08,39,12.00
2016,06,17,08,40,12.20
2016,06,17,08,41,12.30
2016,06,17,08,42,12.30
2016,06,17,08,43,12.40
2016,06,17,08,44,12.40
2016,06,17,08,45,12.40
2016,06,17,08,46,12.40
2016,06,17,08,47,12.40
2016,06,17,08,48,12.40
2016,06,17,08,49,12.40
2016,06,17,08,50,12.40
2016,06,17,08,51,12.50
2016,06,17,08,52,12.60
2016,06,17,08,53,12.60
2016,06,17,08,54,12.70
2016,06,17,08,55,12.80
2016,06,17,08,56,12.90
2016,06,17,08,57,13.00
2016,06,17,08,58,13.00
2016,06,17,08,59,13.10
2016,06,17,09,00,13.10
2016,06,17,09,01,13.20
2016,06,17,09,02,13.20
2016,06,17,09,03,13.30
2016,06,17,09,04,13.30
2016,06,17,09,05,13.40
2016,06,17,09,06,13.50
2016,06,17,09,07,13.70
2016,06,17,09,08,13.80
2016,06,17,09,09,14.00
2016,06,17,09,10,14.10
2016,06,17,09,11,14.20
2016,06,17,09,12,14.30
2016,06,17,09,13,14.40
2016,06,17,09,14,14.50
2016,06,17,09,15,14.60
2016,06,17,09,16,14.60
2016,06,17,09,17,14.70
2016,06,17,09,18,14.70
2016,06,17,09,19,14.70
2016,06,17,09,20,14.70
2016,06,17,09,21,14.60
2016,06,17,09,22,14.60
2016,06,17,09,23,14.60
2016,06,17,09,24,14.60
2016,06,17,09,25,14.60
2016,06,17,09,26,14.60
2016,06,17,09,27,14.60
2016,06,17,09,28,14.60
2016,06,17,09,29,14.60
2016,06,17,09,30,14.60
2016,06,17,09,31,14.60
2016,06,17,09,32,14.60
2016,06,17,09,33,14.70
2016,06,17,09,34,14.70
2016,06,17,09,35,14.80
2016,06,17,09,36,15.00
2016,06,17,09,37,15.00
2016,06,17,09,38,15.00
2016,06,17,09,39,15.00
2016,06,17,09,40,15.00
2016,06,17,09,41,15.00
2016,06,17,09,42,15.00
2016,06,17,09,43,15.00
2016,06,17,09,44,15.10
2016,06,17,09,45,15.20
2016,06,17,09,46,15.20
2016,06,17,09,47,15.20
2016,06,17,09,48,15.20
2016,06,17,09,49,15.20
2016,06,17,09,50,15.20
2016,06,17,09,51,15.20
2016,06,17,09,52,15.30
2016,06,17,09,53,15.30
2016,06,17,09,54,15.30
2016,06,17,09,55,15.40
2016,06,17,09,56,15.50
2016,06,17,09,57,15.60
2016,06,17,09,58,15.70
2016,06,17,09,59,15.80
2016,06,17,10,00,15.80
2016,06,17,10,01,15.80
2016,06,17,10,02,15.90
2016,06,17,10,03,16.00
2016,06,17,10,04,16.00
2016,06,17,10,05,16.00
2016,06,17,10,06,15.90
2016,06,17,10,07,15.80
2016,06,17,10,08,15.70
2016,06,17,10,09,15.70
2016,06,17,10,10,15.60
2016,06,17,10,11,15.60
2016,06,17,10,12,15.70
2016,06,17,10,13,15.70
2016,06,17,10,14,15.80
2016,06,17,10,15,15.90
2016,06,17,10,16,16.00
2016,06,17,10,17,16.10
2016,06,17,10,18,16.20
2016,06,17,10,19,16.40
2016,06,17,10,20,16.50
2016,06,17,10,21,16.60
2016,06,17,10,22,16.70
2016,06,17,10,23,16.80
2016,06,17,10,24,16.80
2016,06,17,10,25,16.90
2016,06,17,10,26,17.10
2016,06,17,10,27,17.20
2016,06,17,10,28,17.20
2016,06,17,10,29,17.30
2016,06,17,10,30,17.30
2016,06,17,10,31,17.40
2016,06,17,10,32,17.40
2016,06,17,10,33,17.40
2016,06,17,10,34,17.30
2016,06,17,10,35,17.20
2016,06,17,10,36,17.00
2016,06,17,10,37,17.00
2016,06,17,10,38,16.90
2016,06,17,10,39,16.80
2016,06,17,10,40,16.80
2016,06,17,10,41,16.90
2016,06,17,10,42,17.10
2016,06,17,10,43,17.20
2016,06,17,10,44,17.30
2016,06,17,10,45,17.50
2016,06,17,10,46,17.60
2016,06,17,10,47,17.60
2016,06,17,10,48,17.50
2016,06,17,10,49,17.40
2016,06,17,10,50,17.30
2016,06,17,10,51,17.20
2016,06,17,10,52,17.00
2016,06,17,10,53,16.90
2016,06,17,10,54,16.90
2016,06,17,10,55,16.90
2016,06,17,10,56,16.90
2016,06,17,10,57,16.90
2016,06,17,10,58,16.90
2016,06,17,10,59,16.90
2016,06,17,11,00,16.80
2016,06,17,11,01,16.80
2016,06,17,11,02,16.80
2016,06,17,11,03,16.80
2016,06,17,11,04,16.70
2016,06,17,11,05,16.70
2016,06,17,11,06,16.60
2016,06,17,11,07,16.50
2016,06,17,11,08,16.60
2016,06,17,11,09,16.60
2016,06,17,11,10,16.70
2016,06,17,11,11,16.80
2016,06,17,11,12,16.90
2016,06,17,11,13,17.10
2016,06,17,11,14,17.20
2016,06,17,11,15,17.20
2016,06,17,11,16,17.20
2016,06,17,11,17,17.10
2016,06,17,11,18,17.10
2016,06,17,11,19,17.10
2016,06,17,11,20,17.10
2016,06,17,11,21,17.10
2016,06,17,11,22,17.20
2016,06,17,11,23,17.20
2016,06,17,11,24,17.20
2016,06,17,11,25,17.20
2016,06,17,11,26,17.20
2016,06,17,11,27,17.30
2016,06,17,11,28,17.40
2016,06,17,11,29,17.40
2016,06,17,11,30,17.50
2016,06,17,11,31,17.50
2016,06,17,11,32,17.60
2016,06,17,11,33,17.60
2016,06,17,11,34,17.70
2016,06,17,11,35,17.70
2016,06,17,11,36,17.60
2016,06,17,11,37,17.60
2016,06,17,11,38,17.60
2016,06,17,11,39,17.60
2016,06,17,11,40,17.70
2016,06,17,11,41,17.70
2016,06,17,11,42,17.70
2016,06,17,11,43,17.70
2016,06,17,11,44,17.80
2016,06,17,11,45,17.80
2016,06,17,11,46,17.90
2016,06,17,11,47,17.90
2016,06,17,11,48,17.90
2016,06,17,11,49,17.90
2016,06,17,11,50,17.90
2016,06,17,11,51,17.90
2016,06,17,11,52,17.90
2016,06,17,11,53,17.90
2016,06,17,11,54,17.90
2016,06,17,11,55,17.80
2016,06,17,11,56,17.70
2016,06,17,11,57,17.70
2016,06,17,11,58,17.60
2016,06,17,11,59,17.70
2016,06,17,12,00,17.70
2016,06,17,12,01,17.70
2016,06,17,12,02,17.80
2016,06,17,12,03,17.90
2016,06,17,12,04,18.00
2016,06,17,12,05,18.10
2016,06,17,12,06,18.10
2016,06,17,12,07,18.10
2016,06,17,12,08,18.10
2016,06,17,12,09,18.20
2016,06,17,12,10,18.20
2016,06,17,12,11,18.30
2016,06,17,12,12,18.30
2016,06,17,12,13,18.30
2016,06,17,12,14,18.30
2016,06,17,12,15,18.30
2016,06,17,12,16,18.40
2016,06,17,12,17,18.50
2016,06,17,12,18,18.60
2016,06,17,12,19,18.70
2016,06,17,12,20,18.80
2016,06,17,12,21,18.90
2016,06,17,12,22,18.90
2016,06,17,12,23,18.80
2016,06,17,12,24,18.80
2016,06,17,12,25,18.80
2016,06,17,12,26,18.70
2016,06,17,12,27,18.60
2016,06,17,12,28,18.50
2016,06,17,12,29,18.50
2016,06,17,12,30,18.50
2016,06,17,12,31,18.50
2016,06,17,12,32,18.60
2016,06,17,12,33,18.60
2016,06,17,12,34,18.50
2016,06,17,12,35,18.40
2016,06,17,12,36,18.40
2016,06,17,12,37,18.40
2016,06,17,12,38,18.50
2016,06,17,12,39,18.50
2016,06,17,12,40,18.60
2016,06,17,12,41,18.50
2016,06,17,12,42,18.50
2016,06,17,12,43,18.40
2016,06,17,12,44,18.30
2016,06,17,12,45,18.40
2016,06,17,12,46,18.40
2016,06,17,12,47,18.40
2016,06,17,12,48,18.50
2016,06,17,12,49,18.60
2016,06,17,12,50,18.60
2016,06,17,12,51,18.70
2016,06,17,12,52,18.70
2016,06,17,12,53,18.80
2016,06,17,12,54,18.80
2016,06,17,12,55,18.80
2016,06,17,12,56,18.90
2016,06,17,12,57,19.00
2016,06,17,12,58,19.00
2016,06,17,12,59,18.90
2016,06,17,13,00,18.80
2016,06,17,13,01,18.80
2016,06,17,13,02,18.80
2016,06,17,13,03,18.80
2016,06,17,13,04,18.80
2016,06,17,13,05,18.90
2016,06,17,13,06,19.00
2016,06,17,13,07,19.00
2016,06,17,13,08,19.00
2016,06,17,13,09,18.90
2016,06,17,13,10,18.80
2016,06,17,13,11,18.70
2016,06,17,13,12,18.70
2016,06,17,13,13,18.70
2016,06,17,13,14,18.70
2016,06,17,13,15,18.80
2016,06,17,13,16,18.80
2016,06,17,13,17,18.80
2016,06,17,13,18,18.90
2016,06,17,13,19,19.00
2016,06,17,13,20,19.00
2016,06,17,13,21,19.10
2016,06,17,13,22,19.10
2016,06,17,13,23,19.20
2016,06,17,13,24,19.20
2016,06,17,13,25,19.20
2016,06,17,13,26,19.00
2016,06,17,13,27,18.90
2016,06,17,13,28,18.80
2016,06,17,13,29,18.80
2016,06,17,13,30,18.80
2016,06,17,13,31,18.80
2016,06,17,13,32,18.90
2016,06,17,13,33,19.00
2016,06,17,13,34,19.10
2016,06,17,13,35,19.20
2016,06,17,13,36,19.20
2016,06,17,13,37,19.20
2016,06,17,13,38,19.10
2016,06,17,13,39,19.10
2016,06,17,13,40,19.10
2016,06,17,13,41,19.10
2016,06,17,13,42,19.20
2016,06,17,13,43,19.20
2016,06,17,13,44,19.20
2016,06,17,13,45,19.30
2016,06,17,13,46,19.40
2016,06,17,13,47,19.40
2016,06,17,13,48,19.50
2016,06,17,13,49,19.60
2016,06,17,13,50,19.60
2016,06,17,13,51,19.50
2016,06,17,13,52,19.40
2016,06,17,13,53,19.30
2016,06,17,13,54,19.20
2016,06,17,13,55,19.20
2016,06,17,13,56,19.20
2016,06,17,13,57,19.30
2016,06,17,13,58,19.40
2016,06,17,13,59,19.40
2016,06,17,14,00,19.40
2016,06,17,14,01,19.50
2016,06,17,14,02,19.60
2016,06,17,14,03,19.70
2016,06,17,14,04,19.70
2016,06,17,14,05,19.80
2016,06,17,14,06,19.80
2016,06,17,14,07,19.90
2016,06,17,14,08,19.80
2016,06,17,14,09,19.80
2016,06,17,14,10,19.80
2016,06,17,14,11,19.80
2016,06,17,14,12,19.70
2016,06,17,14,13,19.70
2016,06,17,14,14,19.70
2016,06,17,14,15,19.70
2016,06,17,14,16,19.80
2016,06,17,14,17,19.80
2016,06,17,14,18,19.90
2016,06,17,14,19,20.00
2016,06,17,14,20,20.10
2016,06,17,14,21,20.20
2016,06,17,14,22,20.30
2016,06,17,14,23,20.20
2016,06,17,14,24,20.20
2016,06,17,14,25,20.20
2016,06,17,14,26,20.20
2016,06,17,14,27,20.20
2016,06,17,14,28,20.20
2016,06,17,14,29,20.20
2016,06,17,14,30,20.20
2016,06,17,14,31,20.10
2016,06,17,14,32,20.00
2016,06,17,14,33,20.00
2016,06,17,14,34,20.10
2016,06,17,14,35,20.00
2016,06,17,14,36,20.00
2016,06,17,14,37,20.00
2016,06,17,14,38,19.90
2016,06,17,14,39,19.80
2016,06,17,14,40,19.80
2016,06,17,14,41,19.80
2016,06,17,14,42,19.80
2016,06,17,14,43,19.80
2016,06,17,14,44,19.70
2016,06,17,14,45,19.70
2016,06,17,14,46,19.70
2016,06,17,14,47,19.70
2016,06,17,14,48,19.70
2016,06,17,14,49,19.80
2016,06,17,14,50,19.90
2016,06,17,14,51,20.00
2016,06,17,14,52,20.00
2016,06,17,14,53,20.00
2016,06,17,14,54,19.90
2016,06,17,14,55,19.90
2016,06,17,14,56,19.90
2016,06,17,14,57,19.90
2016,06,17,14,58,20.00
2016,06,17,14,59,20.00
2016,06,17,15,00,20.10
2016,06,17,15,01,20.20
2016,06,17,15,02,20.20
2016,06,17,15,03,20.10
2016,06,17,15,04,20.10
2016,06,17,15,05,20.00
2016,06,17,15,06,20.00
2016,06,17,15,07,20.00
2016,06,17,15,08,20.00
2016,06,17,15,09,20.10
2016,06,17,15,10,20.10
2016,06,17,15,11,20.20
2016,06,17,15,12,20.20
2016,06,17,15,13,20.20
2016,06,17,15,14,20.20
2016,06,17,15,15,20.20
2016,06,17,15,16,20.30
2016,06,17,15,17,20.30
2016,06,17,15,18,20.40
2016,06,17,15,19,20.50
2016,06,17,15,20,20.50
2016,06,17,15,21,20.50
2016,06,17,15,22,20.40
2016,06,17,15,23,20.40
2016,06,17,15,24,20.50
2016,06,17,15,25,20.50
2016,06,17,15,26,20.50
2016,06,17,15,27,20.40
2016,06,17,15,28,20.30
2016,06,17,15,29,20.30
2016,06,17,15,30,20.20
2016,06,17,15,31,20.20
2016,06,17,15,32,20.20
2016,06,17,15,33,20.20
2016,06,17,15,34,20.20
2016,06,17,15,35,20.30
2016,06,17,15,36,20.40
2016,06,17,15,37,20.50
2016,06,17,15,38,20.50
2016,06,17,15,39,20.50
2016,06,17,15,40,20.50
2016,06,17,15,41,20.50
2016,06,17,15,42,20.50
2016,06,17,15,43,20.40
2016,06,17,15,44,20.40
2016,06,17,15,45,20.40
2016,06,17,15,46,20.40
2016,06,17,15,47,20.50
2016,06,17,15,48,20.50
2016,06,17,15,49,20.60
2016,06,17,15,50,20.60
2016,06,17,15,51,20.60
2016,06,17,15,52,20.60
2016,06,17,15,53,20.60
2016,06,17,15,54,20.60
2016,06,17,15,55,20.70
2016,06,17,15,56,20.60
2016,06,17,15,57,20.60
2016,06,17,15,58,20.50
2016,06,17,15,59,20.40
2016,06,17,16,00,20.40
2016,06,17,16,01,20.50
2016,06,17,16,02,20.60
2016,06,17,16,03,20.60
2016,06,17,16,04,20.70
2016,06,17,16,05,20.80
2016,06,17,16,06,20.80
2016,06,17,16,07,20.80
2016,06,17,16,08,20.80
2016,06,17,16,09,20.80
2016,06,17,16,10,20.80
2016,06,17,16,11,20.80
2016,06,17,16,12,20.80
2016,06,17,16,13,20.80
2016,06,17,16,14,20.70
2016,06,17,16,15,20.70
2016,06,17,16,16,20.70
2016,06,17,16,17,20.70
2016,06,17,16,18,20.60
2016,06,17,16,19,20.60
2016,06,17,16,20,20.60
2016,06,17,16,21,20.60
2016,06,17,16,22,20.70
2016,06,17,16,23,20.60
2016,06,17,16,24,20.60
2016,06,17,16,25,20.50
2016,06,17,16,26,20.40
2016,06,17,16,27,20.30
2016,06,17,16,28,20.30
2016,06,17,16,29,20.30
2016,06,17,16,30,20.40
2016,06,17,16,31,20.40
2016,06,17,16,32,20.40
2016,06,17,16,33,20.40
2016,06,17,16,34,20.50
2016,06,17,16,35,20.50
2016,06,17,16,36,20.60
2016,06,17,16,37,20.70
2016,06,17,16,38,20.70
2016,06,17,16,39,20.60
2016,06,17,16,40,20.60
2016,06,17,16,41,20.50
2016,06,17,16,42,20.50
2016,06,17,16,43,20.40
2016,06,17,16,44,20.40
2016,06,17,16,45,20.30
2016,06,17,16,46,20.30
2016,06,17,16,47,20.30
2016,06,17,16,48,20.30
2016,06,17,16,49,20.30
2016,06,17,16,50,20.40
2016,06,17,16,51,20.40
2016,06,17,16,52,20.50
2016,06,17,16,53,20.60
2016,06,17,16,54,20.60
2016,06,17,16,55,20.60
2016,06,17,16,56,20.50
2016,06,17,16,57,20.40
2016,06,17,16,58,20.40
2016,06,17,16,59,20.40
2016,06,17,17,00,20.40
2016,06,17,17,01,20.40
2016,06,17,17,02,20.40
2016,06,17,17,03,20.40
2016,06,17,17,04,20.40
2016,06,17,17,05,20.40
2016,06,17,17,06,20.40
2016,06,17,17,07,20.40
2016,06,17,17,08,20.40
2016,06,17,17,09,20.30
2016,06,17,17,10,20.30
2016,06,17,17,11,20.30
2016,06,17,17,12,20.30
2016,06,17,17,13,20.30
2016,06,17,17,14,20.30
2016,06,17,17,15,20.30
2016,06,17,17,16,20.30
2016,06,17,17,17,20.30
2016,06,17,17,18,20.30
2016,06,17,17,19,20.30
2016,06,17,17,20,20.30
2016,06,17,17,21,20.30
2016,06,17,17,22,20.30
2016,06,17,17,23,20.30
2016,06,17,17,24,20.30
2016,06,17,17,25,20.30
2016,06,17,17,26,20.30
2016,06,17,17,27,20.30
2016,06,17,17,28,20.20
2016,06,17,17,29,20.10
2016,06,17,17,30,20.10
2016,06,17,17,31,20.00
2016,06,17,17,32,20.00
2016,06,17,17,33,19.90
2016,06,17,17,34,19.90
2016,06,17,17,35,19.90
2016,06,17,17,36,19.90
2016,06,17,17,37,19.90
2016,06,17,17,38,19.90
2016,06,17,17,39,19.90
2016,06,17,17,40,19.90